Volver al catálogo

STARLINK-32079

ActivoComunicacionesVLEO
NORAD 60336·PAYLOAD·🇺🇸 United States

Lanzado Aug 2, 2024 desde Cape Canaveral Space Force Station

Loading…

Próximos Pases (próximas 24 horas)

TLE

ActualizadoSource: CelesTrak SupGP

Época: Sep 14, 2026, 22:13 UTC

1 60336C 24136H   26257.92618056  .00048385  00000+0  14298-2 0  2573
2 60336  53.1585 276.0830 0001190  86.4423 357.4343 15.34360115    10

Sigue STARLINK-32079 en tiempo real con AllMySat

Download on the App Store